Theta_e
316 314 320 324 323 320 321 323 322 322 322 327 332 333 338 341 343 345 340 340 335 324 321 318 317 317 316 316 317 318 322 328 335 339 341 340 339 338 336 332 329 326 322 319 318 318 316 318 317
316 319 320 321 321 322 323 324 323 323 323 329 332 333 337 342 339 336 347 342 326 324 320 318 318 317 316 316 316 317 318 324 332 335 336 337 337 336 333 329 325 322 318 316 314 314 317 318 318
318 322 318 320 320 324 323 323 323 325 325 332 335 335 337 342 338 335 344 337 325 324 321 319 319 317 316 315 316 316 317 319 326 329 330 332 335 333 330 327 323 320 317 314 315 318 317 320 321
327 326 325 320 321 322 323 324 324 324 324 334 334 336 336 339 337 341 344 337 325 325 322 320 320 318 316 316 316 316 316 317 320 323 325 329 331 330 327 324 320 318 314 318 319 320 321 323 325
325 321 320 319 321 323 324 324 323 323 323 333 333 334 337 339 337 344 343 337 327 326 324 321 320 319 317 317 316 315 316 316 316 318 322 324 326 327 324 321 318 316 314 320 322 323 326 327 328
328 321 322 321 321 322 322 322 322 322 321 328 331 334 336 339 337 343 341 338 331 327 327 322 320 320 318 317 316 315 315 315 315 316 318 319 323 323 320 318 316 314 314 321 322 326 327 328 328
331 326 325 323 322 322 323 321 321 321 321 323 326 330 338 337 337 339 340 340 338 333 330 327 320 319 319 317 316 315 315 315 315 315 315 316 317 318 317 315 314 313 314 319 322 327 328 328 328
327 326 328 328 326 325 325 323 321 321 323 323 325 328 339 336 337 338 340 341 344 342 338 335 323 319 318 317 316 315 315 315 315 315 315 314 315 315 314 314 313 313 315 318 321 328 329 330 330
321 328 330 330 329 327 324 324 324 323 323 323 324 331 338 339 335 335 338 342 344 344 342 340 336 326 319 318 317 315 314 314 315 315 315 314 314 314 313 313 314 314 316 318 321 328 329 332 332
321 323 330 329 328 328 327 327 326 324 323 324 323 333 336 337 337 335 334 334 344 349 345 343 342 338 329 320 318 317 316 314 314 315 315 315 315 315 315 315 314 315 316 318 322 327 329 333 333
320 322 323 326 327 328 328 328 327 326 323 323 323 325 333 335 336 336 333 333 337 344 346 345 342 341 334 327 321 321 318 316 316 315 315 317 318 318 321 322 323 322 322 324 322 327 330 331 332
313 317 322 324 326 328 328 327 328 328 326 326 325 325 325 333 333 336 336 334 334 341 344 347 346 344 341 333 334 334 336 335 329 322 318 321 322 322 322 330 331 329 329 325 326 324 326 328 330
314 315 315 317 319 322 325 327 328 328 328 328 327 327 325 327 331 335 336 336 336 338 341 346 344 344 344 342 340 340 339 339 340 341 339 334 331 328 327 325 333 333 332 330 329 328 328 330 328
311 312 314 315 315 316 318 321 325 327 328 329 329 327 326 326 331 334 335 335 337 337 344 345 343 339 342 345 343 342 341 342 343 343 343 342 339 336 335 331 331 334 335 334 332 333 332 334 334
312 311 312 313 315 316 317 319 320 323 326 328 329 329 328 326 328 331 333 335 337 336 336 342 340 338 340 346 347 345 344 345 343 343 344 344 343 340 339 336 334 335 335 337 335 335 335 335 337
310 309 310 313 315 316 316 317 318 319 324 326 327 329 329 328 326 329 333 334 335 335 338 338 340 341 341 344 343 344 345 344 347 348 347 346 345 343 341 341 337 335 337 336 338 338 338 336 336
309 310 310 311 312 313 314 317 317 318 320 324 324 327 328 328 327 328 330 333 334 336 335 345 344 346 346 346 338 334 335 337 339 343 345 346 348 346 343 342 341 339 337 338 339 339 339 339 337
310 309 310 311 311 310 309 311 313 316 318 320 322 323 327 328 327 328 329 331 332 337 334 335 346 348 349 342 338 338 344 341 341 344 346 346 346 348 346 343 343 342 342 339 338 339 338 336 337
312 313 313 313 313 312 312 313 313 313 313 316 320 323 324 325 325 326 327 330 331 336 336 335 336 340 340 343 344 346 344 343 342 341 341 346 346 348 348 347 344 345 344 343 339 340 338 337 337
313 313 313 313 313 312 312 312 313 313 313 313 314 319 323 325 324 325 326 327 332 337 336 334 334 336 337 336 334 332 335 337 336 334 343 344 345 347 350 348 346 347 344 343 343 340 340 338 337
312 312 313 313 313 312 312 313 313 313 312 313 314 315 319 325 325 326 327 327 330 339 338 335 334 334 334 334 333 334 341 340 341 343 343 344 345 348 348 348 346 346 346 345 343 342 341 337 336
313 314 315 314 311 311 311 312 311 312 312 313 314 314 316 320 325 324 325 326 339 339 338 335 334 334 333 331 331 334 342 341 339 342 345 347 348 347 347 347 347 345 347 345 344 343 340 337 340
315 314 313 313 311 308 309 309 310 311 312 312 312 314 316 319 324 325 325 325 335 336 335 333 333 333 332 331 330 337 342 340 341 344 348 347 348 348 348 347 346 345 347 344 344 342 339 337 338
314 315 314 312 308 309 309 309 309 309 310 312 312 313 316 319 322 324 323 325 331 336 335 334 333 333 332 331 332 336 337 337 343 350 349 348 348 348 348 347 347 344 348 343 345 341 340 340 338
311 315 317 313 310 311 310 313 313 314 313 311 312 313 313 314 317 323 321 322 326 330 333 332 332 333 332 332 333 333 335 337 344 349 351 350 349 349 349 346 343 346 345 344 343 342 340 338 338
310 313 316 318 314 313 311 313 311 313 314 314 313 313 312 313 317 323 323 321 321 327 328 332 332 331 332 334 338 337 340 340 344 351 351 349 348 348 345 343 343 344 344 343 341 340 339 338 337
308 312 310 314 315 318 315 313 313 313 315 317 318 316 314 315 321 321 320 321 320 325 328 329 329 333 333 337 341 343 342 341 347 351 350 349 348 345 344 343 344 345 344 342 340 338 336 335 335
312 311 312 317 317 319 315 315 315 322 321 318 317 318 318 317 323 324 324 327 333 336 338 338 332 333 337 342 342 341 346 347 352 352 350 349 347 345 345 345 345 344 342 340 338 334 336 336 335
314 315 316 317 318 319 317 314 321 319 318 317 315 316 318 319 322 320 325 334 336 338 338 339 334 336 338 340 347 350 349 350 354 351 352 349 347 346 346 346 343 340 337 337 335 335 335 334 334
313 313 316 319 317 315 317 317 317 316 316 316 315 317 320 321 319 326 338 338 338 338 339 338 335 341 348 350 350 349 352 354 352 350 348 349 349 347 345 342 339 334 335 336 335 333 334 332 333
Wind_Speed
11 8 9 5 3 2 6 9 14 17 12 6 7 8 8 6 9 5 17 36 33 42 39 35 32 29 26 24 22 20 18 17 16 14 13 11 10 9 9 8 8 7 6 4 3 3 2 2 3
8 3 5 3 3 3 7 19 21 20 17 4 8 7 8 5 8 12 16 35 42 42 40 36 32 30 27 24 22 20 18 17 16 15 13 12 11 10 10 9 8 7 6 5 4 4 4 3 2
6 3 2 4 4 9 6 8 11 18 33 4 5 5 4 8 11 19 23 40 42 40 38 35 31 29 28 26 23 22 20 19 17 16 15 14 13 12 10 9 8 7 7 6 7 6 5 4 3
3 1 3 1 10 12 22 19 20 19 16 7 7 3 3 22 23 23 42 40 41 38 37 34 31 30 27 25 23 22 21 19 18 17 16 15 15 14 12 10 10 9 8 8 8 8 7 6 4
5 1 3 4 12 15 17 17 16 18 13 2 6 4 8 16 35 47 43 38 40 38 35 34 31 29 27 24 23 21 20 19 18 17 17 17 17 16 14 13 12 12 10 10 10 9 8 6 5
3 2 1 7 15 17 19 17 8 9 16 9 2 5 5 25 40 42 41 39 38 39 35 34 31 28 26 24 23 21 20 19 19 19 19 19 19 18 17 16 15 15 14 13 12 11 10 8 7
4 1 5 9 15 19 20 8 6 9 12 11 7 4 4 14 34 40 38 34 35 36 34 33 33 30 27 25 24 22 21 20 20 21 21 21 21 21 20 19 19 18 17 16 15 14 13 11 10
4 4 8 12 15 20 16 14 7 7 16 13 8 4 1 8 37 38 37 34 34 32 31 31 33 31 29 28 26 24 24 23 22 22 23 23 23 23 22 21 22 21 21 19 18 17 15 14 12
3 4 9 16 18 18 15 8 10 5 8 8 6 8 4 22 27 26 29 30 31 29 28 28 30 32 31 29 27 26 25 24 24 24 24 25 26 26 25 25 24 23 23 21 20 19 17 16 15
6 7 16 11 15 15 16 17 13 8 8 10 11 4 20 23 23 17 16 21 28 31 30 28 26 29 31 30 28 27 26 27 28 28 28 28 28 27 27 26 26 26 26 24 22 22 20 18 18
9 18 13 16 19 20 20 17 14 9 8 9 10 6 7 8 18 14 17 27 32 41 35 31 26 23 25 29 29 26 29 30 29 30 30 30 30 29 28 26 27 27 27 25 25 24 23 23 21
14 17 17 19 21 21 23 18 18 13 12 13 13 10 2 8 5 9 12 22 24 36 39 35 32 30 25 25 27 25 26 26 27 31 31 32 31 32 32 29 28 27 28 28 28 27 28 25 23
18 16 17 18 18 18 19 23 20 19 14 17 17 15 10 9 9 13 8 16 22 24 32 36 33 28 26 24 27 26 27 27 23 26 27 30 30 31 32 32 30 31 30 29 29 30 29 26 25
8 13 14 16 19 20 19 21 17 21 14 16 16 13 11 10 10 2 10 9 11 20 36 37 34 28 30 29 30 28 29 25 23 26 30 30 31 32 30 31 33 33 30 31 31 29 30 28 26
14 14 16 15 14 14 11 20 27 20 16 15 19 20 14 9 16 8 18 15 6 17 17 36 33 25 29 34 31 31 29 25 26 30 31 30 34 34 31 32 32 30 32 28 33 30 28 30 29
9 8 7 2 9 12 8 25 23 12 16 18 18 15 18 10 10 21 25 27 27 15 23 25 23 28 34 36 39 34 29 28 28 28 27 33 35 35 34 32 33 32 27 30 30 31 31 30 32
5 9 12 16 11 13 11 25 25 18 17 18 20 16 17 17 11 16 23 32 33 23 25 33 35 37 40 37 28 25 24 24 26 27 28 31 34 36 36 33 29 30 31 28 28 24 27 28 31
7 11 12 19 4 10 13 22 18 15 21 20 18 20 18 17 16 17 23 26 22 25 27 28 34 35 34 23 19 20 22 24 23 25 24 26 27 33 35 33 28 28 27 30 29 24 21 21 16
13 17 17 20 12 13 13 18 22 14 16 19 21 12 19 20 24 29 28 30 30 30 33 32 28 26 26 21 19 22 25 24 22 22 25 24 29 30 34 29 29 27 23 23 27 23 21 19 13
14 15 18 17 13 13 16 21 23 16 16 18 19 21 19 21 19 20 28 32 30 30 39 37 34 33 30 28 27 22 23 25 29 25 26 26 26 27 30 33 29 22 25 22 21 20 14 14 11
14 14 16 20 15 12 16 20 22 26 17 18 21 19 20 21 22 19 14 24 32 29 37 39 36 34 32 28 27 25 25 24 18 22 28 26 25 26 26 25 24 24 21 23 20 18 17 13 11
17 14 20 19 10 10 6 18 16 20 22 19 18 18 19 17 21 19 17 12 18 28 40 38 33 32 31 30 27 29 25 21 25 22 28 25 25 25 25 23 21 20 22 25 19 21 20 15 9
16 14 20 23 10 9 10 10 15 9 16 21 17 22 19 18 21 23 21 13 25 36 39 40 37 35 33 32 32 33 29 29 25 21 25 26 24 23 21 22 19 21 20 23 19 21 18 15 14
16 8 14 16 4 12 15 12 20 16 21 24 20 22 25 18 15 22 19 22 18 30 35 35 33 35 35 36 34 33 32 31 23 21 29 29 27 23 21 22 20 22 20 20 18 20 17 16 15
12 4 4 4 4 12 12 5 8 18 22 25 25 23 25 29 24 19 15 11 12 26 32 37 40 39 38 36 36 36 36 33 26 25 28 29 28 25 25 17 18 17 19 13 17 18 17 17 15
10 5 4 6 9 13 12 10 14 19 19 22 21 25 25 27 30 19 21 14 10 23 29 30 34 34 36 36 37 38 37 31 27 24 30 31 31 27 23 18 22 20 18 14 15 16 14 13 12
14 6 6 3 3 2 6 18 18 20 18 18 26 21 20 22 19 20 13 10 9 18 25 27 29 31 33 37 34 33 33 31 26 28 33 32 27 27 21 22 23 19 17 17 15 12 12 11 10
9 7 8 2 4 6 8 11 8 13 19 26 32 27 24 10 12 3 9 8 9 11 8 3 14 26 30 32 32 31 28 26 27 33 33 29 29 25 26 23 21 19 19 15 10 11 11 12 13
8 4 4 3 4 4 5 4 8 12 16 23 30 31 24 31 7 6 2 7 8 4 3 2 14 26 28 27 26 25 24 28 32 33 28 30 27 26 26 25 23 20 15 12 13 8 14 15 14
6 5 5 3 5 3 7 10 10 8 14 17 25 22 24 23 3 5 5 4 0 5 9 9 20 27 29 27 25 24 26 29 32 26 29 30 33 29 27 24 21 15 14 17 14 10 16 14 12
Wind_Direction
301 281 311 283 47 126 251 255 245 269 275 215 94 76 132 126 147 210 148 157 173 160 158 157 155 155 159 161 159 159 163 164 165 165 166 164 166 167 168 161 160 164 166 165 157 153 146 116 82
307 323 270 266 136 258 266 242 249 249 253 143 74 61 59 81 83 111 109 156 167 160 159 159 158 158 162 168 166 167 170 171 171 173 174 178 182 187 184 182 183 182 185 181 178 175 170 151 120
301 216 42 173 199 228 254 266 297 293 308 131 94 83 95 132 110 140 156 156 165 162 161 160 161 163 166 170 171 174 177 178 180 181 184 189 196 200 199 199 202 203 201 196 188 186 187 178 165
295 348 292 271 259 259 242 277 291 294 308 80 112 97 73 142 143 151 158 158 163 164 166 163 166 167 169 171 177 181 184 185 187 189 193 198 203 208 209 210 216 218 213 206 203 199 201 189 190
257 245 246 261 255 262 265 268 277 288 299 145 113 234 134 148 135 151 157 159 165 167 172 169 171 171 173 174 181 186 193 194 195 200 204 206 211 214 215 218 223 222 218 218 215 213 213 206 212
289 147 306 240 265 266 270 266 334 352 344 307 26 197 166 147 138 152 159 162 170 170 174 175 176 176 178 179 186 191 198 204 206 209 212 215 218 220 221 221 223 225 220 221 224 224 223 221 227
226 328 247 271 270 278 276 331 350 327 333 312 314 10 104 133 143 152 162 161 165 172 172 178 181 183 183 186 190 195 204 210 214 217 221 222 224 227 226 225 226 223 223 222 225 225 228 229 233
250 230 253 260 265 276 292 312 307 315 307 304 322 286 96 168 155 153 157 159 165 170 171 178 184 186 188 190 194 200 207 212 217 222 226 227 229 231 230 229 230 227 226 224 227 226 230 233 237
294 232 242 246 255 264 288 310 309 288 290 317 314 338 55 154 136 136 144 145 161 170 177 178 185 191 192 195 198 204 211 216 221 225 228 231 231 231 230 230 231 230 231 228 229 228 231 235 240
201 228 230 244 262 279 297 299 303 320 311 307 315 319 96 115 124 152 179 170 162 170 181 183 185 191 193 198 203 208 214 219 222 226 226 230 232 233 234 233 234 233 234 232 232 233 233 237 241
235 241 250 248 254 274 278 279 294 304 294 279 289 2 323 151 166 186 210 186 169 180 181 183 185 187 190 197 203 210 219 223 226 232 231 230 233 233 234 235 235 234 233 232 233 234 234 236 239
263 256 247 248 259 269 273 285 284 292 285 292 305 313 344 235 217 195 204 211 173 174 181 182 185 182 186 190 201 200 212 219 226 231 232 230 229 233 230 231 232 232 231 234 234 235 237 238 241
250 265 271 270 271 266 273 269 273 273 278 290 293 299 309 296 227 215 207 206 199 159 168 179 182 185 186 195 206 207 215 221 228 231 229 226 231 230 230 228 230 230 230 235 236 238 238 239 241
302 289 281 271 261 260 262 274 273 264 264 265 276 280 292 313 250 213 270 245 166 142 165 176 174 191 194 194 208 212 215 221 230 236 234 228 230 230 227 226 223 228 228 231 235 235 236 238 238
320 310 304 282 273 274 284 267 257 265 257 265 248 264 268 259 278 237 251 246 231 137 142 181 191 212 204 196 201 206 210 218 227 239 242 242 231 229 227 224 222 223 227 231 233 233 234 233 237
300 283 282 15 267 281 245 268 262 274 254 254 258 268 265 246 249 267 225 249 245 201 148 169 195 211 206 210 215 214 214 217 221 230 237 243 238 230 227 224 222 222 225 227 226 229 233 233 232
250 270 268 273 248 263 260 254 260 257 261 252 248 257 261 270 252 243 250 232 221 206 173 171 182 192 198 207 206 213 221 225 230 237 236 236 236 231 223 223 223 223 225 227 231 228 228 234 235
248 269 281 280 248 247 259 266 273 268 248 249 249 244 244 262 267 266 256 255 222 213 189 177 173 185 191 202 216 229 232 238 243 246 240 236 235 229 222 220 219 223 226 227 233 241 236 237 225
287 291 292 296 320 327 302 291 288 296 301 288 245 243 238 242 253 264 273 263 254 211 188 179 174 167 174 184 205 224 232 240 243 242 239 231 234 227 215 210 214 221 224 224 227 234 235 226 222
302 290 277 281 290 293 298 289 291 294 291 286 283 266 232 230 240 254 260 265 246 215 197 186 192 190 188 197 217 236 251 257 258 254 235 229 229 222 212 209 211 216 226 232 225 224 214 206 194
289 283 282 284 292 277 271 276 287 291 284 278 280 267 260 219 222 233 242 244 250 199 193 190 191 195 202 211 222 237 238 244 248 242 227 222 223 207 207 206 211 213 222 224 223 221 216 195 212
298 294 302 303 304 277 255 275 266 281 288 288 288 275 269 258 227 226 234 233 218 191 191 186 193 199 210 214 226 235 226 229 238 241 215 206 203 199 203 208 212 206 223 218 218 222 213 200 184
301 307 295 296 288 310 285 283 287 273 270 279 282 283 274 271 233 219 230 221 217 189 185 192 198 204 209 214 224 222 224 239 239 226 197 189 190 197 200 206 208 208 217 221 221 214 213 214 204
285 281 301 279 256 268 271 262 274 269 275 286 277 280 281 278 241 223 216 215 199 201 189 193 198 208 212 217 221 222 228 231 229 218 185 188 188 191 199 201 205 213 215 213 225 209 202 203 209
318 61 341 324 311 270 273 296 264 300 283 261 270 276 272 279 282 219 212 207 191 189 192 195 201 206 215 219 222 224 229 226 219 214 185 182 185 188 190 191 204 203 205 194 191 189 195 198 202
296 233 189 267 274 283 298 269 272 260 272 278 275 281 271 286 290 213 209 213 192 203 212 204 204 209 219 222 220 221 220 214 222 215 191 181 187 188 189 187 200 200 191 184 179 186 198 204 204
296 274 259 319 344 310 250 268 268 269 272 331 333 275 269 269 283 211 193 175 178 189 198 202 202 209 215 218 208 209 211 212 218 199 190 189 191 191 186 190 197 196 181 176 186 196 197 198 198
343 310 294 70 262 243 242 286 271 14 3 347 343 332 326 270 270 25 126 134 135 132 122 110 224 201 202 199 198 198 202 205 205 182 185 188 189 184 186 186 186 174 176 179 189 187 197 198 196
340 9 20 177 224 277 310 272 47 21 5 347 329 326 326 306 310 291 126 129 133 155 186 153 192 183 181 181 184 184 191 199 181 176 182 187 174 174 178 174 168 170 173 187 188 177 185 180 182
207 223 177 154 285 293 286 273 65 28 28 332 328 318 325 295 330 353 77 96 228 220 224 219 188 170 170 169 174 185 191 183 171 162 163 169 166 166 166 165 173 177 190 183 182 171 183 190 187